| time (UTC) | temp C | wind direction | speed KPH | gust KPH | rain 1hr cm | rain 24hr cm | rain mn cm | humidity % | barometer mb |
| 20260510011641 | 9 | 36 | 0.0 | 0.0 | 0.00 | 0.97 | 0.97 | 97 | 1009.1 |
| 20260510011137 | 9 | 36 | 0.0 | 0.0 | 0.00 | 0.97 | 0.97 | 97 | 1009.4 |
| 20260510010633 | 9 | 36 | 0.0 | 0.0 | 0.00 | 0.97 | 0.97 | 97 | 1009.5 |
| 20260510010130 | 10 | 35 | 0.0 | 0.0 | 0.00 | 0.97 | 0.97 | 96 | 1009.5 |
| 20260510005626 | 10 | 54 | 0.0 | 0.0 | 0.00 | 0.97 | 0.97 | 96 | 1009.2 |
| 20260510005123 | 10 | 35 | 0.0 | 0.0 | 0.00 | 0.97 | 0.97 | 96 | 1009.1 |
| 20260510004622 | 10 | 29 | 0.0 | 0.0 | 0.00 | 0.97 | 0.97 | 96 | 1009.1 |
| 20260510004119 | 10 | 29 | 0.0 | 0.0 | 0.00 | 0.97 | 0.97 | 95 | 1009.0 |
| 20260510003616 | 10 | 41 | 0.0 | 0.0 | 0.00 | 0.97 | 0.97 | 95 | 1009.1 |
| 20260510003112 | 11 | 29 | 0.0 | 0.0 | 0.00 | 0.97 | 0.97 | 94 | 1009.3 |
| 20260510002607 | 11 | 25 | 0.0 | 0.0 | 0.00 | 0.97 | 0.97 | 94 | 1009.4 |
| 20260510002104 | 11 | 53 | 0.0 | 0.0 | 0.00 | 0.97 | 0.97 | 93 | 1009.0 |
| 20260510001601 | 11 | 39 | 0.0 | 0.0 | 0.00 | 0.97 | 0.97 | 92 | 1009.1 |
| 20260510001100 | 12 | 39 | 0.0 | 0.0 | 0.00 | 0.97 | 0.97 | 91 | 1009.2 |
| 20260510000559 | 12 | 29 | 0.0 | 0.0 | 0.00 | 0.97 | 0.97 | 90 | 1009.3 |
| 20260510000056 | 12 | 16 | 0.0 | 0.0 | 0.00 | 0.97 | 0.97 | 89 | 1009.4 |
| 20260509235553 | 12 | 1 | 0.0 | 0.0 | 0.00 | 0.97 | 0.97 | 87 | 1009.0 |
| 20260509235049 | 13 | 1 | 0.0 | 0.0 | 0.00 | 0.97 | 0.97 | 86 | 1009.0 |
| 20260509234545 | 13 | 348 | 0.0 | 0.0 | 0.00 | 0.97 | 0.97 | 86 | 1008.9 |
| 20260509234044 | 13 | 359 | 0.0 | 0.0 | 0.00 | 0.97 | 0.97 | 85 | 1008.8 |
| 20260509233541 | 13 | 133 | 1.6 | 3.2 | 0.00 | 0.97 | 0.97 | 85 | 1008.6 |
| 20260509233038 | 13 | 335 | 1.6 | 1.6 | 0.00 | 0.97 | 0.97 | 84 | 1008.6 |
| 20260509232535 | 13 | 37 | 0.0 | 0.0 | 0.00 | 0.97 | 0.97 | 84 | 1008.5 |
| 20260509232031 | 13 | 347 | 0.0 | 1.6 | 0.00 | 0.97 | 0.97 | 84 | 1008.3 |
| 20260509231528 | 13 | 321 | 1.6 | 1.6 | 0.00 | 0.97 | 0.97 | 83 | 1008.6 |
| 20260509231026 | 13 | 311 | 1.6 | 1.6 | 0.00 | 0.97 | 0.97 | 83 | 1008.5 |
| 20260509230522 | 13 | 339 | 4.8 | 4.8 | 0.00 | 0.97 | 0.97 | 83 | 1008.5 |
| 20260509230019 | 13 | 284 | 3.2 | 3.2 | 0.00 | 0.97 | 0.97 | 84 | 1008.5 |
| 20260509225514 | 13 | 29 | 0.0 | 0.0 | 0.00 | 0.97 | 0.97 | 84 | 1008.3 |
| 20260509225010 | 13 | 228 | 1.6 | 3.2 | 0.00 | 0.97 | 0.97 | 84 | 1008.3 |
| 20260509224506 | 13 | 15 | 0.0 | 1.6 | 0.00 | 0.97 | 0.97 | 84 | 1008.1 |
| 20260509224004 | 13 | 261 | 1.6 | 3.2 | 0.00 | 0.97 | 0.97 | 83 | 1008.6 |
| 20260509223500 | 14 | 190 | 0.0 | 1.6 | 0.00 | 0.97 | 0.97 | 83 | 1008.6 |
| 20260509222957 | 14 | 318 | 4.8 | 8.0 | 0.00 | 0.97 | 0.97 | 82 | 1008.9 |
| 20260509222453 | 14 | 21 | 0.0 | 1.6 | 0.00 | 0.97 | 0.97 | 82 | 1008.6 |
| 20260509221949 | 14 | 198 | 1.6 | 1.6 | 0.00 | 0.97 | 0.97 | 81 | 1008.6 |
| 20260509221445 | 15 | 335 | 1.6 | 1.6 | 0.00 | 0.97 | 0.97 | 80 | 1008.5 |
| 20260509220941 | 15 | 230 | 1.6 | 3.2 | 0.00 | 0.97 | 0.97 | 81 | 1008.6 |
| 20260509220437 | 14 | 223 | 4.8 | 8.0 | 0.00 | 0.97 | 0.97 | 82 | 1008.7 |
| 20260509215933 | 13 | 229 | 1.6 | 3.2 | 0.00 | 0.97 | 0.97 | 83 | 1008.7 |
| 20260509215429 | 14 | 204 | 6.4 | 9.7 | 0.00 | 0.97 | 0.97 | 82 | 1008.8 |
| 20260509214927 | 14 | 236 | 4.8 | 8.0 | 0.00 | 0.97 | 0.97 | 83 | 1008.9 |
| 20260509214424 | 14 | 187 | 3.2 | 4.8 | 0.00 | 0.97 | 0.97 | 83 | 1008.9 |
| 20260509213921 | 13 | 243 | 3.2 | 3.2 | 0.00 | 0.97 | 0.97 | 85 | 1008.9 |
| 20260509213417 | 13 | 329 | 1.6 | 1.6 | 0.00 | 0.97 | 0.97 | 86 | 1009.1 |
| 20260509212914 | 13 | 323 | 1.6 | 3.2 | 0.00 | 0.97 | 0.97 | 88 | 1009.1 |
| 20260509212412 | 13 | 244 | 4.8 | 8.0 | 0.00 | 0.97 | 0.97 | 88 | 1009.2 |
| 20260509211908 | 12 | 272 | 3.2 | 3.2 | 0.00 | 0.97 | 0.97 | 88 | 1009.2 |
| 20260509211404 | 13 | 244 | 4.8 | 4.8 | 0.00 | 0.97 | 0.97 | 89 | 1009.2 |
| 20260509210900 | 13 | 208 | 3.2 | 3.2 | 0.00 | 0.97 | 0.97 | 89 | 1009.3 |
| 20260509210357 | 12 | 189 | 3.2 | 4.8 | 0.00 | 0.97 | 0.97 | 90 | 1009.2 |
| 20260509205852 | 12 | 244 | 4.8 | 4.8 | 0.00 | 0.97 | 0.97 | 90 | 1009.4 |
| 20260509205346 | 12 | 170 | 6.4 | 11.3 | 0.00 | 0.97 | 0.97 | 90 | 1009.3 |
| 20260509204843 | 12 | 176 | 4.8 | 8.0 | 0.00 | 0.97 | 0.97 | 90 | 1009.6 |
| 20260509204334 | 12 | 351 | 1.6 | 3.2 | 0.00 | 0.97 | 0.97 | 91 | 1009.3 |
| 20260509203830 | 13 | 228 | 4.8 | 4.8 | 0.00 | 0.97 | 0.97 | 90 | 1009.4 |
| 20260509203327 | 13 | 289 | 3.2 | 3.2 | 0.00 | 0.97 | 0.97 | 90 | 1009.3 |
| 20260509202824 | 13 | 219 | 6.4 | 9.7 | 0.00 | 0.97 | 0.97 | 89 | 1009.3 |
| 20260509202320 | 12 | 286 | 3.2 | 4.8 | 0.00 | 0.97 | 0.97 | 90 | 1009.3 |
| 20260509201819 | 12 | 141 | 3.2 | 3.2 | 0.18 | 0.97 | 0.97 | 91 | 1009.4 |
| 20260509201316 | 12 | 28 | 3.2 | 3.2 | 0.18 | 0.97 | 0.97 | 91 | 1009.2 |
| 20260509200813 | 12 | 281 | 1.6 | 3.2 | 0.18 | 0.97 | 0.97 | 91 | 1009.3 |
| 20260509200308 | 12 | 41 | 1.6 | 1.6 | 0.00 | 0.94 | 0.94 | 92 | 1009.4 |
| 20260509195805 | 11 | 238 | 3.2 | 3.2 | 0.00 | 0.94 | 0.94 | 92 | 1009.4 |
| 20260509195300 | 11 | 235 | 6.4 | 8.0 | 0.00 | 0.94 | 0.94 | 93 | 1009.6 |
| 20260509194759 | 11 | 239 | 8.0 | 11.3 | 0.00 | 0.94 | 0.94 | 93 | 1009.8 |
| 20260509194256 | 11 | 270 | 3.2 | 3.2 | 0.13 | 0.94 | 0.94 | 94 | 1009.8 |
| 20260509193752 | 11 | 339 | 0.0 | 0.0 | 0.13 | 0.94 | 0.94 | 94 | 1010.0 |
| 20260509193247 | 11 | 16 | 3.2 | 4.8 | 0.18 | 0.91 | 0.91 | 94 | 1010.0 |
| 20260509192743 | 11 | 154 | 4.8 | 4.8 | 0.30 | 0.91 | 0.91 | 93 | 1010.1 |
| 20260509192238 | 11 | 242 | 9.7 | 12.9 | 0.30 | 0.89 | 0.89 | 93 | 1010.2 |
| 20260509191734 | 11 | 213 | 3.2 | 3.2 | 0.36 | 0.86 | 0.86 | 93 | 1010.2 |
| 20260509191231 | 11 | 66 | 1.6 | 3.2 | 0.18 | 0.84 | 0.84 | 93 | 1010.3 |
| 20260509190727 | 11 | 311 | 3.2 | 3.2 | 0.13 | 0.81 | 0.81 | 93 | 1010.3 |
| 20260509190224 | 11 | 273 | 1.6 | 1.6 | 0.30 | 0.81 | 0.81 | 92 | 1010.3 |
| 20260509185721 | 11 | 255 | 6.4 | 8.0 | 0.18 | 0.79 | 0.79 | 92 | 1010.4 |
| 20260509185218 | 11 | 202 | 3.2 | 4.8 | 0.13 | 0.76 | 0.76 | 93 | 1010.4 |
| 20260509184715 | 11 | 196 | 3.2 | 3.2 | 0.30 | 0.76 | 0.76 | 93 | 1010.4 |
| 20260509184212 | 11 | 334 | 1.6 | 1.6 | 0.18 | 0.74 | 0.74 | 93 | 1010.5 |
| 20260509183708 | 11 | 200 | 3.2 | 3.2 | 0.13 | 0.71 | 0.71 | 93 | 1010.5 |
| 20260509183203 | 11 | 146 | 4.8 | 8.0 | 0.30 | 0.71 | 0.71 | 92 | 1010.4 |
| 20260509182659 | 11 | 176 | 4.8 | 8.0 | 0.30 | 0.69 | 0.69 | 92 | 1010.5 |
| 20260509182157 | 11 | 293 | 3.2 | 3.2 | 0.30 | 0.66 | 0.66 | 92 | 1010.3 |
| 20260509181654 | 11 | 282 | 3.2 | 4.8 | 0.18 | 0.64 | 0.64 | 92 | 1010.5 |
| 20260509181152 | 11 | 86 | 1.6 | 1.6 | 0.13 | 0.61 | 0.61 | 92 | 1010.5 |
| 20260509180648 | 11 | 173 | 3.2 | 3.2 | 0.30 | 0.61 | 0.61 | 92 | 1010.4 |
| 20260509180145 | 11 | 226 | 4.8 | 4.8 | 0.36 | 0.58 | 0.58 | 92 | 1010.4 |
| 20260509175641 | 11 | 171 | 4.8 | 4.8 | 0.30 | 0.56 | 0.56 | 92 | 1010.2 |
| 20260509175138 | 11 | 145 | 3.2 | 3.2 | 0.30 | 0.53 | 0.53 | 92 | 1010.2 |
| 20260509174633 | 11 | 231 | 3.2 | 4.8 | 0.18 | 0.51 | 0.51 | 91 | 1010.2 |
| 20260509174128 | 11 | 68 | 4.8 | 4.8 | 0.13 | 0.48 | 0.48 | 92 | 1010.3 |
| 20260509173625 | 11 | 188 | 4.8 | 8.0 | 0.13 | 0.48 | 0.48 | 92 | 1010.4 |
| 20260509173121 | 11 | 48 | 1.6 | 1.6 | 0.18 | 0.46 | 0.46 | 92 | 1010.2 |
| 20260509172618 | 11 | 171 | 3.2 | 3.2 | 0.18 | 0.46 | 0.46 | 92 | 1010.1 |
| 20260509172114 | 11 | 189 | 9.7 | 11.3 | 0.00 | 0.43 | 0.43 | 91 | 1010.3 |
| 20260509171609 | 11 | 89 | 4.8 | 4.8 | 0.13 | 0.43 | 0.43 | 91 | 1010.3 |
| 20260509171106 | 12 | 243 | 3.2 | 4.8 | 0.13 | 0.43 | 0.43 | 91 | 1010.2 |
| 20260509170602 | 12 | 269 | 4.8 | 4.8 | 0.00 | 0.41 | 0.41 | 91 | 1010.1 |
| 20260509170058 | 12 | 172 | 3.2 | 4.8 | 0.00 | 0.41 | 0.41 | 90 | 1010.4 |
| 20260509165557 | 12 | 238 | 11.3 | 12.9 | 0.00 | 0.41 | 0.41 | 89 | 1010.3 |
| 20260509165052 | 12 | 303 | 1.6 | 1.6 | 0.00 | 0.41 | 0.41 | 89 | 1010.3 |
| 20260509164549 | 12 | 213 | 4.8 | 11.3 | 0.18 | 0.41 | 0.41 | 91 | 1010.3 |
| 20260509164044 | 12 | 85 | 1.6 | 1.6 | 0.18 | 0.41 | 0.41 | 91 | 1010.3 |
| 20260509163543 | 11 | 287 | 3.2 | 3.2 | 0.00 | 0.38 | 0.38 | 91 | 1010.3 |
| 20260509163038 | 11 | 243 | 8.0 | 11.3 | 0.00 | 0.38 | 0.38 | 92 | 1010.2 |
| 20260509162535 | 11 | 253 | 8.0 | 11.3 | 0.13 | 0.38 | 0.38 | 92 | 1010.1 |
| 20260509162031 | 11 | 219 | 6.4 | 9.7 | 0.13 | 0.38 | 0.38 | 92 | 1010.2 |
| 20260509161527 | 11 | 289 | 1.6 | 3.2 | 0.13 | 0.38 | 0.38 | 91 | 1010.1 |
| 20260509161022 | 11 | 116 | 4.8 | 4.8 | 0.00 | 0.36 | 0.36 | 91 | 1010.4 |
| 20260509160518 | 11 | 232 | 8.0 | 11.3 | 0.00 | 0.36 | 0.36 | 90 | 1010.3 |
| 20260509160014 | 11 | 196 | 8.0 | 9.7 | 0.18 | 0.36 | 0.36 | 89 | 1010.3 |
| 20260509155510 | 12 | 204 | 3.2 | 3.2 | 0.18 | 0.36 | 0.36 | 90 | 1010.3 |
| 20260509155006 | 12 | 197 | 1.6 | 3.2 | 0.00 | 0.33 | 0.33 | 90 | 1010.3 |
| 20260509154503 | 12 | 31 | 4.8 | 4.8 | 0.00 | 0.33 | 0.33 | 89 | 1010.5 |
| 20260509154001 | 12 | 170 | 6.4 | 11.3 | 0.00 | 0.33 | 0.33 | 89 | 1010.3 |
| 20260509153457 | 12 | 289 | 1.6 | 3.2 | 0.00 | 0.33 | 0.33 | 88 | 1010.3 |
| 20260509152954 | 12 | 248 | 3.2 | 3.2 | 0.00 | 0.33 | 0.33 | 88 | 1010.4 |
| 20260509152450 | 11 | 222 | 3.2 | 3.2 | 0.00 | 0.33 | 0.33 | 88 | 1010.4 |
| 20260509151947 | 11 | 266 | 3.2 | 3.2 | 0.00 | 0.33 | 0.33 | 89 | 1010.5 |
| 20260509151443 | 11 | 197 | 3.2 | 3.2 | 0.00 | 0.33 | 0.33 | 90 | 1010.5 |
| 20260509150941 | 11 | 31 | 1.6 | 1.6 | 0.13 | 0.33 | 0.33 | 91 | 1010.6 |
| 20260509150438 | 11 | 83 | 1.6 | 3.2 | 0.13 | 0.33 | 0.33 | 91 | 1010.6 |
| 20260509145937 | 11 | 299 | 1.6 | 1.6 | 0.00 | 0.30 | 0.30 | 91 | 1010.7 |
| 20260509145431 | 11 | 126 | 3.2 | 3.2 | 0.00 | 0.30 | 0.30 | 91 | 1010.5 |
| 20260509144927 | 11 | 270 | 4.8 | 4.8 | 0.18 | 0.30 | 0.30 | 92 | 1010.6 |
| 20260509144424 | 11 | 108 | 1.6 | 3.2 | 0.18 | 0.30 | 0.30 | 91 | 1010.8 |
| 20260509143921 | 11 | 108 | 1.6 | 3.2 | 0.13 | 0.28 | 0.28 | 91 | 1011.1 |
| 20260509143419 | 11 | 237 | 4.8 | 4.8 | 0.13 | 0.28 | 0.28 | 91 | 1011.2 |
| 20260509142915 | 11 | 255 | 4.8 | 4.8 | 0.00 | 0.25 | 0.25 | 91 | 1011.1 |
| 20260509142412 | 11 | 20 | 0.0 | 0.0 | 0.00 | 0.25 | 0.25 | 90 | 1010.9 |
| 20260509141907 | 11 | 15 | 0.0 | 0.0 | 0.00 | 0.25 | 0.25 | 90 | 1010.7 |
| 20260509141404 | 11 | 323 | 3.2 | 3.2 | 0.18 | 0.25 | 0.25 | 90 | 1010.8 |
| 20260509140901 | 11 | 335 | 0.0 | 0.0 | 0.18 | 0.25 | 0.25 | 91 | 1010.8 |
| 20260509140357 | 11 | 3 | 3.2 | 8.0 | 0.00 | 0.23 | 0.23 | 91 | 1010.5 |
| 20260509135856 | 11 | 53 | 1.6 | 3.2 | 0.00 | 0.23 | 0.23 | 90 | 1010.5 |
| 20260509135353 | 11 | 31 | 0.0 | 0.0 | 0.00 | 0.23 | 0.23 | 91 | 1010.7 |
| 20260509134850 | 10 | 131 | 1.6 | 1.6 | 0.00 | 0.23 | 0.23 | 91 | 1010.7 |
| 20260509134347 | 10 | 7 | 3.2 | 3.2 | 0.00 | 0.23 | 0.23 | 92 | 1010.6 |
| 20260509133844 | 10 | 49 | 1.6 | 1.6 | 0.18 | 0.23 | 0.23 | 93 | 1010.6 |
| 20260509133341 | 10 | 9 | 0.0 | 0.0 | 0.18 | 0.23 | 0.23 | 94 | 1010.6 |
| 20260509132840 | 11 | 23 | 0.0 | 0.0 | 0.00 | 0.20 | 0.20 | 94 | 1010.7 |
| 20260509132337 | 11 | 21 | 0.0 | 0.0 | 0.00 | 0.20 | 0.20 | 94 | 1010.6 |
| 20260509131834 | 11 | 12 | 0.0 | 0.0 | 0.13 | 0.20 | 0.20 | 94 | 1010.6 |
| 20260509131331 | 10 | 2 | 0.0 | 0.0 | 0.13 | 0.20 | 0.20 | 94 | 1010.4 |
| 20260509130827 | 10 | 346 | 1.6 | 3.2 | 0.00 | 0.18 | 0.18 | 96 | 1010.3 |
| 20260509130323 | 10 | 46 | 0.0 | 0.0 | 0.00 | 0.18 | 0.18 | 98 | 1010.4 |
| 20260509125820 | 10 | 234 | 3.2 | 3.2 | 0.00 | 0.18 | 0.18 | 99 | 1010.2 |
| 20260509125316 | 10 | 3 | 0.0 | 0.0 | 0.00 | 0.18 | 0.18 | 99 | 1010.2 |
| 20260509124813 | 10 | 21 | 0.0 | 0.0 | 0.00 | 0.18 | 0.18 | 99 | 1010.4 |
| 20260509124309 | 10 | 61 | 0.0 | 0.0 | 0.00 | 0.18 | 0.18 | 99 | 1010.2 |
| 20260509123808 | 10 | 20 | 0.0 | 0.0 | 0.00 | 0.18 | 0.18 | 99 | 1010.3 |
| 20260509123305 | 10 | 24 | 0.0 | 0.0 | 0.00 | 0.18 | 0.18 | 99 | 1010.3 |
| 20260509122800 | 10 | 8 | 0.0 | 0.0 | 0.00 | 0.18 | 0.18 | 99 | 1010.1 |
| 20260509122257 | 10 | 2 | 0.0 | 0.0 | 0.18 | 0.18 | 0.18 | 99 | 1010.3 |
| 20260509121754 | 10 | 31 | 0.0 | 0.0 | 0.18 | 0.18 | 0.18 | 99 | 1010.4 |
| 20260509121251 | 10 | 24 | 0.0 | 0.0 | 0.00 | 0.15 | 0.15 | 99 | 1010.5 |
| 20260509120750 | 9 | 24 | 0.0 | 0.0 | 0.00 | 0.15 | 0.15 | 99 | 1010.4 |
| 20260509120247 | 9 | 36 | 0.0 | 0.0 | 0.00 | 0.15 | 0.15 | 99 | 1010.4 |
| 20260509115745 | 9 | 21 | 0.0 | 0.0 | 0.00 | 0.15 | 0.15 | 99 | 1010.6 |
| 20260509115241 | 9 | 52 | 1.6 | 1.6 | 0.00 | 0.15 | 0.15 | 99 | 1010.6 |
| 20260509114740 | 9 | 4 | 0.0 | 0.0 | 0.00 | 0.15 | 0.15 | 99 | 1010.8 |
| 20260509114238 | 9 | 26 | 0.0 | 0.0 | 0.00 | 0.15 | 0.15 | 99 | 1010.7 |
| 20260509113737 | 9 | 15 | 0.0 | 0.0 | 0.00 | 0.15 | 0.15 | 99 | 1010.8 |
| 20260509113233 | 9 | 0 | 0.0 | 0.0 | 0.00 | 0.15 | 0.15 | 99 | 1010.7 |
| 20260509112730 | 8 | 25 | 0.0 | 0.0 | 0.00 | 0.15 | 0.15 | 99 | 1010.7 |
| 20260509112228 | 9 | 21 | 0.0 | 0.0 | 0.00 | 0.15 | 0.15 | 99 | 1010.9 |
| 20260509111725 | 8 | 21 | 0.0 | 0.0 | 0.00 | 0.15 | 0.15 | 99 | 1010.8 |
| 20260509111221 | 8 | 14 | 0.0 | 0.0 | 0.00 | 0.15 | 0.15 | 99 | 1011.0 |
| 20260509110719 | 8 | 13 | 0.0 | 0.0 | 0.00 | 0.15 | 0.15 | 99 | 1010.8 |
| 20260509110215 | 8 | 12 | 0.0 | 0.0 | 0.00 | 0.15 | 0.15 | 99 | 1011.0 |
| 20260509105713 | 8 | 13 | 0.0 | 0.0 | 0.00 | 0.15 | 0.15 | 99 | 1010.9 |
| 20260509105211 | 8 | 9 | 0.0 | 0.0 | 0.00 | 0.15 | 0.15 | 99 | 1010.8 |
| 20260509104707 | 8 | 20 | 0.0 | 0.0 | 0.00 | 0.15 | 0.15 | 99 | 1010.7 |
| 20260509104204 | 8 | 3 | 0.0 | 0.0 | 0.00 | 0.15 | 0.15 | 99 | 1010.8 |
| 20260509103703 | 8 | 32 | 0.0 | 0.0 | 0.00 | 0.15 | 0.15 | 99 | 1010.5 |
| 20260509103159 | 8 | 31 | 0.0 | 0.0 | 0.00 | 0.15 | 0.15 | 99 | 1010.9 |
| 20260509102658 | 8 | 31 | 0.0 | 0.0 | 0.00 | 0.15 | 0.15 | 99 | 1011.0 |
| 20260509102154 | 8 | 31 | 0.0 | 0.0 | 0.00 | 0.15 | 0.15 | 99 | 1011.0 |
| 20260509101650 | 8 | 31 | 0.0 | 0.0 | 0.00 | 0.15 | 0.15 | 99 | 1011.1 |
| 20260509101147 | 8 | 32 | 0.0 | 0.0 | 0.00 | 0.15 | 0.15 | 99 | 1010.8 |
| 20260509100644 | 8 | 32 | 0.0 | 0.0 | 0.00 | 0.15 | 0.15 | 99 | 1011.2 |
| 20260509100141 | 8 | 32 | 0.0 | 0.0 | 0.00 | 0.15 | 0.15 | 99 | 1011.1 |
| 20260509095638 | 8 | 31 | 0.0 | 0.0 | 0.00 | 0.15 | 0.15 | 99 | 1010.9 |
| 20260509095135 | 8 | 31 | 0.0 | 0.0 | 0.00 | 0.15 | 0.15 | 99 | 1010.8 |
| 20260509094632 | 8 | 31 | 0.0 | 0.0 | 0.00 | 0.15 | 0.15 | 99 | 1010.8 |
| 20260509094129 | 8 | 31 | 0.0 | 0.0 | 0.00 | 0.15 | 0.15 | 99 | 1010.6 |
| 20260509093627 | 8 | 31 | 0.0 | 0.0 | 0.00 | 0.15 | 0.15 | 99 | 1010.7 |
| 20260509093124 | 8 | 30 | 0.0 | 0.0 | 0.00 | 0.15 | 0.15 | 99 | 1010.7 |
| 20260509092622 | 8 | 30 | 0.0 | 0.0 | 0.00 | 0.15 | 0.15 | 99 | 1010.8 |
| 20260509092121 | 8 | 30 | 0.0 | 0.0 | 0.00 | 0.15 | 0.15 | 99 | 1010.8 |
| 20260509091618 | 8 | 30 | 0.0 | 0.0 | 0.00 | 0.15 | 0.15 | 99 | 1011.1 |
| 20260509091114 | 8 | 30 | 0.0 | 0.0 | 0.00 | 0.15 | 0.15 | 99 | 1011.1 |
| 20260509090612 | 8 | 30 | 0.0 | 0.0 | 0.00 | 0.15 | 0.15 | 99 | 1010.9 |
| 20260509090109 | 8 | 30 | 0.0 | 0.0 | 0.00 | 0.15 | 0.15 | 99 | 1011.2 |
| 20260509085606 | 8 | 30 | 0.0 | 0.0 | 0.00 | 0.15 | 0.15 | 99 | 1011.1 |
| 20260509085056 | 8 | 30 | 0.0 | 0.0 | 0.00 | 0.15 | 0.15 | 99 | 1011.3 |
| 20260509084554 | 8 | 30 | 0.0 | 0.0 | 0.00 | 0.15 | 0.15 | 99 | 1011.5 |
| 20260509084051 | 8 | 30 | 0.0 | 0.0 | 0.00 | 0.15 | 0.15 | 99 | 1011.6 |
| 20260509083548 | 8 | 30 | 0.0 | 0.0 | 0.00 | 0.15 | 0.15 | 99 | 1011.6 |
| 20260509083044 | 8 | 30 | 0.0 | 0.0 | 0.00 | 0.15 | 0.15 | 99 | 1011.7 |
| 20260509082542 | 8 | 30 | 0.0 | 0.0 | 0.00 | 0.15 | 0.15 | 99 | 1011.7 |
| 20260509082039 | 8 | 25 | 0.0 | 0.0 | 0.00 | 0.15 | 0.15 | 99 | 1011.6 |
| 20260509081536 | 8 | 21 | 0.0 | 0.0 | 0.00 | 0.15 | 0.15 | 99 | 1011.7 |
| 20260509081033 | 8 | 21 | 0.0 | 0.0 | 0.00 | 0.15 | 0.15 | 99 | 1011.7 |
| 20260509080531 | 8 | 21 | 0.0 | 0.0 | 0.00 | 0.15 | 0.15 | 99 | 1011.4 |
| 20260509080029 | 8 | 21 | 0.0 | 0.0 | 0.00 | 0.15 | 0.15 | 99 | 1011.7 |
| 20260509075526 | 8 | 15 | 0.0 | 0.0 | 0.00 | 0.15 | 0.15 | 99 | 1011.5 |
| 20260509075024 | 8 | 27 | 0.0 | 0.0 | 0.00 | 0.15 | 0.15 | 99 | 1011.4 |
| 20260509074521 | 8 | 28 | 0.0 | 0.0 | 0.00 | 0.15 | 0.15 | 98 | 1011.4 |
| 20260509074017 | 8 | 50 | 0.0 | 0.0 | 0.00 | 0.15 | 0.15 | 98 | 1011.5 |
| 20260509073514 | 8 | 38 | 0.0 | 0.0 | 0.00 | 0.15 | 0.15 | 98 | 1011.7 |
| 20260509073010 | 8 | 39 | 0.0 | 0.0 | 0.00 | 0.15 | 0.15 | 98 | 1011.9 |
| 20260509072507 | 8 | 32 | 0.0 | 0.0 | 0.00 | 0.15 | 0.15 | 98 | 1011.7 |
| 20260509072004 | 8 | 32 | 0.0 | 0.0 | 0.00 | 0.15 | 0.15 | 98 | 1011.6 |
| 20260509071500 | 8 | 32 | 0.0 | 0.0 | 0.00 | 0.15 | 0.15 | 98 | 1011.7 |
| 20260509070958 | 8 | 32 | 0.0 | 0.0 | 0.00 | 0.15 | 0.15 | 98 | 1011.7 |
| 20260509070455 | 8 | 32 | 0.0 | 0.0 | 0.00 | 0.15 | 0.15 | 98 | 1011.6 |
| 20260509065950 | 8 | 32 | 0.0 | 0.0 | 0.00 | 0.15 | 0.15 | 98 | 1011.5 |
| 20260509065446 | 8 | 32 | 0.0 | 0.0 | 0.00 | 0.15 | 0.15 | 98 | 1011.6 |
| 20260509064943 | 8 | 32 | 0.0 | 0.0 | 0.00 | 0.15 | 0.15 | 98 | 1011.8 |
| 20260509064441 | 8 | 32 | 0.0 | 0.0 | 0.00 | 0.15 | 0.15 | 97 | 1011.8 |
| 20260509063938 | 8 | 32 | 0.0 | 0.0 | 0.00 | 0.15 | 0.15 | 97 | 1011.7 |
| 20260509063433 | 8 | 32 | 0.0 | 0.0 | 0.00 | 0.15 | 0.15 | 97 | 1012.1 |
| 20260509062930 | 8 | 31 | 0.0 | 0.0 | 0.00 | 0.15 | 0.15 | 97 | 1012.2 |
| 20260509062428 | 8 | 30 | 0.0 | 0.0 | 0.13 | 0.15 | 0.15 | 97 | 1012.4 |
| 20260509061925 | 8 | 30 | 0.0 | 0.0 | 0.13 | 0.15 | 0.15 | 97 | 1012.4 |
| 20260509061423 | 8 | 22 | 0.0 | 0.0 | 0.00 | 0.13 | 0.13 | 97 | 1012.4 |
| 20260509060920 | 8 | 24 | 0.0 | 0.0 | 0.00 | 0.13 | 0.13 | 97 | 1012.7 |
| 20260509060417 | 8 | 100 | 1.6 | 1.6 | 0.18 | 0.13 | 0.13 | 97 | 1012.7 |
| 20260509055912 | 8 | 16 | 0.0 | 0.0 | 0.30 | 0.13 | 0.13 | 97 | 1012.7 |
| 20260509055407 | 8 | 20 | 0.0 | 0.0 | 0.13 | 0.10 | 0.10 | 97 | 1012.7 |
| 20260509054904 | 8 | 22 | 0.0 | 0.0 | 0.18 | 0.08 | 0.08 | 97 | 1012.8 |
| 20260509054401 | 8 | 25 | 0.0 | 0.0 | 0.18 | 0.08 | 0.08 | 97 | 1012.8 |
| 20260509053900 | 8 | 24 | 0.0 | 0.0 | 0.00 | 0.05 | 0.05 | 97 | 1012.6 |
| 20260509053356 | 8 | 24 | 0.0 | 0.0 | 0.00 | 0.05 | 0.05 | 97 | 1012.5 |
| 20260509052855 | 8 | 25 | 0.0 | 0.0 | 0.00 | 0.05 | 0.05 | 97 | 1011.9 |
| 20260509052352 | 8 | 25 | 0.0 | 0.0 | 0.13 | 0.05 | 0.05 | 97 | 1011.8 |
| 20260509051849 | 8 | 25 | 0.0 | 0.0 | 0.13 | 0.05 | 0.05 | 97 | 1011.7 |
| 20260509051347 | 8 | 20 | 0.0 | 0.0 | 0.00 | 0.03 | 0.03 | 97 | 1011.8 |
| 20260509050844 | 8 | 31 | 0.0 | 0.0 | 0.00 | 0.03 | 0.03 | 97 | 1011.5 |
| 20260509050341 | 8 | 33 | 0.0 | 0.0 | 0.00 | 0.03 | 0.03 | 96 | 1011.5 |
| 20260509045837 | 8 | 33 | 0.0 | 0.0 | 0.00 | 0.03 | 0.03 | 96 | 1011.7 |
| 20260509045334 | 8 | 40 | 0.0 | 0.0 | 0.00 | 0.03 | 0.03 | 96 | 1012.3 |
| 20260509044832 | 8 | 30 | 0.0 | 0.0 | 0.00 | 0.03 | 0.03 | 96 | 1012.2 |
| 20260509044329 | 8 | 30 | 0.0 | 0.0 | 0.00 | 0.03 | 0.03 | 96 | 1011.9 |
| 20260509043825 | 8 | 30 | 0.0 | 0.0 | 0.00 | 0.03 | 0.03 | 95 | 1011.8 |
| 20260509043321 | 8 | 30 | 0.0 | 0.0 | 0.00 | 0.03 | 0.03 | 95 | 1011.9 |
| 20260509042817 | 8 | 30 | 0.0 | 0.0 | 0.00 | 0.03 | 0.03 | 95 | 1012.1 |
| 20260509042314 | 8 | 31 | 0.0 | 0.0 | 0.18 | 0.03 | 0.03 | 94 | 1012.2 |
| 20260509041811 | 8 | 38 | 0.0 | 0.0 | 0.18 | 0.03 | 0.03 | 94 | 1012.2 |
| 20260509041308 | 8 | 19 | 0.0 | 0.0 | 0.00 | 0.00 | 0.00 | 94 | 1012.4 |
| 20260509040806 | 8 | 25 | 0.0 | 0.0 | 0.00 | 0.00 | 0.00 | 94 | 1011.9 |
| 20260509040303 | 8 | 24 | 0.0 | 0.0 | 0.00 | 0.00 | 0.00 | 94 | 1012.4 |
| 20260509035800 | 8 | 25 | 0.0 | 0.0 | 0.00 | 0.28 | 0.28 | 94 | 1012.1 |
| 20260509035257 | 8 | 25 | 0.0 | 0.0 | 0.00 | 0.28 | 0.28 | 94 | 1012.2 |
| 20260509034754 | 8 | 24 | 0.0 | 0.0 | 0.00 | 0.28 | 0.28 | 94 | 1012.2 |
| 20260509034252 | 8 | 24 | 0.0 | 0.0 | 0.00 | 0.28 | 0.28 | 94 | 1012.3 |
| 20260509033748 | 8 | 24 | 0.0 | 0.0 | 0.00 | 0.28 | 0.28 | 94 | 1012.2 |
| 20260509033245 | 8 | 24 | 0.0 | 0.0 | 0.00 | 0.28 | 0.28 | 94 | 1012.2 |
| 20260509032742 | 8 | 24 | 0.0 | 0.0 | 0.00 | 0.28 | 0.28 | 94 | 1012.3 |
| 20260509032239 | 8 | 24 | 0.0 | 0.0 | 0.00 | 0.28 | 0.28 | 94 | 1012.5 |
| 20260509031737 | 8 | 23 | 0.0 | 0.0 | 0.00 | 0.28 | 0.28 | 94 | 1012.5 |
| 20260509031234 | 8 | 22 | 0.0 | 0.0 | 0.00 | 0.28 | 0.28 | 94 | 1012.6 |
| 20260509030732 | 8 | 28 | 0.0 | 0.0 | 0.00 | 0.28 | 0.28 | 94 | 1012.4 |
| 20260509030229 | 8 | 32 | 0.0 | 0.0 | 0.00 | 0.28 | 0.28 | 93 | 1012.4 |
| 20260509025726 | 8 | 20 | 0.0 | 0.0 | 0.00 | 0.28 | 0.28 | 93 | 1012.5 |
| 20260509025221 | 8 | 20 | 0.0 | 0.0 | 0.00 | 0.28 | 0.28 | 93 | 1012.3 |
| 20260509024717 | 8 | 19 | 0.0 | 0.0 | 0.00 | 0.28 | 0.28 | 93 | 1012.4 |
| 20260509024213 | 8 | 9 | 0.0 | 0.0 | 0.00 | 0.28 | 0.28 | 93 | 1012.3 |
| 20260509023711 | 8 | 49 | 0.0 | 0.0 | 0.00 | 0.28 | 0.28 | 92 | 1012.3 |
| 20260509023208 | 8 | 49 | 0.0 | 0.0 | 0.00 | 0.28 | 0.28 | 91 | 1012.2 |
| 20260509022703 | 8 | 49 | 0.0 | 0.0 | 0.00 | 0.28 | 0.28 | 91 | 1012.2 |
| 20260509022202 | 8 | 49 | 0.0 | 0.0 | 0.00 | 0.28 | 0.28 | 91 | 1012.7 |
| 20260509021658 | 8 | 49 | 0.0 | 0.0 | 0.00 | 0.28 | 0.28 | 90 | 1012.5 |
| 20260509021156 | 8 | 48 | 0.0 | 0.0 | 0.00 | 0.28 | 0.28 | 89 | 1012.4 |
| 20260509020654 | 9 | 48 | 0.0 | 0.0 | 0.00 | 0.28 | 0.28 | 89 | 1012.6 |
| 20260509020150 | 10 | 48 | 0.0 | 0.0 | 0.00 | 0.28 | 0.28 | 88 | 1012.6 |
| 20260509015649 | 10 | 48 | 0.0 | 0.0 | 0.00 | 0.28 | 0.28 | 87 | 1012.4 |
| 20260509015147 | 10 | 49 | 0.0 | 0.0 | 0.00 | 0.28 | 0.28 | 86 | 1012.2 |
| 20260509014643 | 10 | 49 | 0.0 | 0.0 | 0.00 | 0.28 | 0.28 | 87 | 1011.9 |
| 20260509014139 | 10 | 49 | 0.0 | 0.0 | 0.00 | 0.28 | 0.28 | 86 | 1012.2 |
| 20260509013636 | 10 | 49 | 0.0 | 0.0 | 0.00 | 0.28 | 0.28 | 87 | 1011.9 |
| 20260509013132 | 10 | 50 | 0.0 | 0.0 | 0.00 | 0.28 | 0.28 | 87 | 1012.2 |
| 20260509012629 | 10 | 62 | 1.6 | 1.6 | 0.00 | 0.28 | 0.28 | 86 | 1012.3 |
| 20260509012126 | 10 | 149 | 1.6 | 1.6 | 0.00 | 0.28 | 0.28 | 84 | 1012.2 |